METEOR 2-20 DEB

Satellite information

Favourite Embed

Satellite Type and Status

DEBRISIN ORBIT

Key statistics

Satellite METEOR 2-20 DEB at a glance.

Uptime

12761

Days in orbit

Revolutions

≈ 13.9

Per day

Orbit

LEO

Low Earth Orbit

Inclination

82.6

Latest

Satellite identification and parameters

Extended collection of information and parameters for METEOR 2-20 DEB.

Object identification

Identified? True

Debris? True

Object name: METEOR 2-20 DEB

International designator: 1990-086J

Object number (NORAD): 59999

Object ID (CCSDS): 59999

Country: COMMONWEALTH OF INDEPENDENT STATES (CIS)

Current information (Y/N): Y

RCS size: SMALL

Orbital parameters

Period: 103.395 minutes

Inclination: 82.5664 deg

SMA: 7297.283 km

Apoapsis: 928.071 km

Periapsis: 910.225 km

RAAN: 61.5086 deg

Eccentricy: 0.00122284

Argument of periapsis: 36.8362 deg

Mean anomaly: 323.364 deg

Mean motion: 13.92710907 rev/day

Mean motion (dot): 0.00002412 rev/day2

B* drag term: 0.0018538909 1/REarth

Two-line elements (TLE)

Creation date: Sept. 2, 2025, 3:25 a.m.

Reference frame: TEME

Reference center: EARTH

Epoch: Sept. 1, 2025, 6:43 p.m. UTC

TLE line 0: 0 METEOR 2-20 DEB

TLE line 1: 1 59999U 90086J 25244.77997284 .00002412 00000-0 18539-2 0 9991

TLE line 2: 2 59999 82.5664 61.5086 0012228 36.8362 323.3640 13.92710907460564

Live tracking on map

Real-time ground track for satellite METEOR 2-20 DEB.

In-orbit conjunctions

A list of the most updated potential collisions computed for object METEOR 2-20 DEB.

Target Orbit TCA Probability of collision Miss distance Type
COSMOS 2251 DEB LEO 2025-02-09 21:48:23 0.005258954 23.0 (m) DEBRIS
FENGYUN 1C DEB SSO 2025-01-07 02:06:09 0.000124941 721.0 (m) DEBRIS
FENGYUN 1C DEB SSO 2024-12-09 01:32:11 0.0005592607 248.0 (m) DEBRIS
METEOR 2-11 DEB LEO 2024-09-23 06:18:35 0.000222105 330.0 (m) DEBRIS
CZ-4B DEB SSO 2024-06-12 21:39:15 0.000274914 618.0 (m) DEBRIS

Associated space launch

Second generation soviet meteorological satellite

METEOR 2-20 DEB was lifted into orbit during the mission ‘Tsiklon-3 | Meteor-2 20’, on board a Tsiklon-3 space rocket.

The launch took place on Sept. 28, 1990, 7:30 a.m. from 32/1.

For more information about the launch, click the button.

Launch to space Tsiklon-3 | Meteor-2 20
Tsiklon-3 | Meteor-2 20

Agency: N/A

Status: Launch Successful

Launch date: Sept. 28, 1990, 7:30 a.m. UTC

Rocket: Tsiklon-3

Launch pad: 32/1

Location: Plesetsk Cosmodrome, Russian Federation

...

Latest news about this satellite

There are no fresh news available about this satellite. Check back as we update our databases every day.


Newsletter sign-up

Weekly statistics, charts and insights to help you stay on top of the space industry.